When you browse on this site, cookies collect data to enhance your experience and personalize the content and advertising you see.
Visit our Privacy Policy to learn more. By continuing to use the site, you agree to this use of cookies and data.
  • In Netherlands
  • List of Countries
  • For 7 days
  • Water Temperature
  • Satellite Maps
  • Weather Map
  • Weather Widgets
  • user-avatar
    Login

    Hourly Weather Salskiy Kagalnik

    Today, 21 May, Tuesday

    Time Temperature Precipitation Wind Pressure Humidity
    00:00 +14°C° 0 mm 3 mps 763 mmHg 54%
    01:00 +13°C° 0 mm 3 mps 763 mmHg 55%
    02:00 +14°C° 0 mm 2 mps 763 mmHg 55%
    03:00 +13°C° 0 mm 2 mps 762 mmHg 58%
    04:00 +13°C° 0 mm 2 mps 762 mmHg 60%
    05:00 +14°C° 0 mm 2 mps 763 mmHg 61%
    06:00 +14°C° 0 mm 2 mps 763 mmHg 63%
    07:00 +16°C° 0 mm 2 mps 763 mmHg 58%
    08:00 +18°C° 0 mm 3 mps 763 mmHg 52%
    09:00 +20°C° 0 mm 3 mps 763 mmHg 46%
    10:00 +21°C° 0 mm 4 mps 763 mmHg 43%
    11:00 +23°C° 0 mm 4 mps 763 mmHg 41%
    12:00 +25°C° 0 mm 4 mps 763 mmHg 38%
    13:00 +25°C° 0 mm 4 mps 763 mmHg 38%
    14:00 +25°C° 0 mm 4 mps 763 mmHg 38%
    15:00 +26°C° 0 mm 4 mps 763 mmHg 38%
    16:00 +25°C° 0 mm 4 mps 762 mmHg 42%
    17:00 +25°C° 0 mm 3 mps 762 mmHg 47%
    18:00 +24°C° 0 mm 2 mps 762 mmHg 52%
    19:00 +21°C° 0 mm 3 mps 762 mmHg 54%
    20:00 +19°C° 0 mm 3 mps 762 mmHg 56%
    21:00 +17°C° 0 mm 4 mps 762 mmHg 58%
    22:00 +17°C° 0 mm 4 mps 762 mmHg 55%
    23:00 +17°C° 0 mm 4 mps 762 mmHg 53%

    Tomorrow, 22 May, Wednesday

    Time Temperature Precipitation Wind Pressure Humidity
    00:00 +16°C° 0 mm 5 mps 762 mmHg 50%
    01:00 +15°C° 0 mm 5 mps 762 mmHg 51%
    02:00 +15°C° 0 mm 4 mps 762 mmHg 52%
    03:00 +14°C° 0 mm 4 mps 762 mmHg 54%
    04:00 +14°C° 0 mm 4 mps 761 mmHg 54%
    05:00 +14°C° 0 mm 5 mps 761 mmHg 53%
    06:00 +13°C° 0 mm 5 mps 761 mmHg 53%
    07:00 +15°C° 0 mm 6 mps 761 mmHg 50%
    08:00 +16°C° 0 mm 7 mps 761 mmHg 48%
    09:00 +17°C° 0 mm 8 mps 760 mmHg 45%
    10:00 +18°C° 0 mm 8 mps 760 mmHg 44%
    11:00 +21°C° 0 mm 8 mps 759 mmHg 42%
    12:00 +22°C° 0 mm 8 mps 759 mmHg 41%
    13:00 +22°C° 0 mm 7 mps 759 mmHg 43%
    14:00 +22°C° 0 mm 7 mps 759 mmHg 44%
    15:00 +22°C° 0 mm 6 mps 758 mmHg 46%
    16:00 +21°C° 0.2 mm 6 mps 758 mmHg 57%
    17:00 +20°C° 0.2 mm 5 mps 758 mmHg 67%
    18:00 +19°C° 0.2 mm 4 mps 758 mmHg 77%
    19:00 +18°C° 0.7 mm 4 mps 757 mmHg 82%
    20:00 +17°C° 0.7 mm 4 mps 757 mmHg 87%
    21:00 +17°C° 0.7 mm 4 mps 757 mmHg 92%
    22:00 +15°C° 0.1 mm 4 mps 757 mmHg 92%
    23:00 +15°C° 0.1 mm 4 mps 757 mmHg 93%

    Day after tomorrow, 23 May, Thursday

    Time Temperature Precipitation Wind Pressure Humidity
    00:00 +15°C° 0.1 mm 4 mps 757 mmHg 93%
    01:00 +15°C° 0.1 mm 4 mps 757 mmHg 94%
    02:00 +15°C° 0.1 mm 4 mps 757 mmHg 96%
    03:00 +14°C° 0.1 mm 4 mps 756 mmHg 97%
    04:00 +14°C° 0 mm 4 mps 756 mmHg 96%
    05:00 +15°C° 0 mm 4 mps 756 mmHg 95%
    06:00 +15°C° 0 mm 4 mps 756 mmHg 94%
    07:00 +17°C° 0.1 mm 4 mps 756 mmHg 87%
    08:00 +19°C° 0.1 mm 4 mps 756 mmHg 80%
    09:00 +20°C° 0.1 mm 5 mps 756 mmHg 73%
    10:00 +21°C° 0.1 mm 5 mps 756 mmHg 66%
    11:00 +22°C° 0.1 mm 6 mps 756 mmHg 60%
    12:00 +23°C° 0.1 mm 6 mps 755 mmHg 54%
    13:00 +23°C° 0.2 mm 7 mps 755 mmHg 55%
    14:00 +23°C° 0.2 mm 7 mps 755 mmHg 56%
    15:00 +23°C° 0.2 mm 8 mps 755 mmHg 57%
    16:00 +23°C° 0.5 mm 7 mps 755 mmHg 61%
    17:00 +22°C° 0.5 mm 6 mps 755 mmHg 65%
    18:00 +22°C° 0.5 mm 5 mps 754 mmHg 68%
    19:00 +20°C° 0.5 mm 4 mps 755 mmHg 74%
    20:00 +19°C° 0.5 mm 4 mps 755 mmHg 79%
    21:00 +17°C° 0.5 mm 4 mps 755 mmHg 85%
    22:00 +17°C° 0.3 mm 4 mps 755 mmHg 86%
    23:00 +17°C° 0.3 mm 4 mps 755 mmHg 87%

    24 May, Friday

    Time Temperature Precipitation Wind Pressure Humidity
    00:00 +15°C° 0.3 mm 5 mps 755 mmHg 88%
    01:00 +15°C° 0 mm 4 mps 755 mmHg 90%
    02:00 +15°C° 0 mm 4 mps 755 mmHg 92%
    03:00 +14°C° 0 mm 4 mps 755 mmHg 93%
    04:00 +15°C° 0 mm 4 mps 755 mmHg 93%
    05:00 +15°C° 0 mm 4 mps 755 mmHg 92%
    06:00 +15°C° 0 mm 4 mps 755 mmHg 91%
    07:00 +18°C° 0 mm 4 mps 756 mmHg 84%
    08:00 +20°C° 0 mm 4 mps 756 mmHg 77%
    09:00 +22°C° 0 mm 4 mps 756 mmHg 71%
    10:00 +24°C° 0 mm 3 mps 756 mmHg 65%
    11:00 +25°C° 0 mm 3 mps 756 mmHg 59%
    12:00 +26°C° 0 mm 3 mps 756 mmHg 54%
    13:00 +27°C° 0 mm 3 mps 756 mmHg 51%
    14:00 +28°C° 0 mm 3 mps 756 mmHg 48%
    15:00 +28°C° 0 mm 3 mps 756 mmHg 45%
    16:00 +28°C° 0 mm 2 mps 756 mmHg 49%
    17:00 +27°C° 0 mm 2 mps 756 mmHg 53%
    18:00 +26°C° 0 mm 2 mps 756 mmHg 57%
    19:00 +25°C° 0 mm 2 mps 756 mmHg 62%
    20:00 +23°C° 0 mm 1 mps 756 mmHg 67%
    21:00 +21°C° 0 mm 1 mps 756 mmHg 72%
    22:00 +20°C° 0 mm 1 mps 756 mmHg 75%
    23:00 +20°C° 0 mm 1 mps 756 mmHg 78%

    25 May, Saturday

    Time Temperature Precipitation Wind Pressure Humidity
    00:00 +17°C° 0 mm 0 mps 756 mmHg 81%
    01:00 +17°C° 0 mm 0 mps 756 mmHg 81%
    02:00 +17°C° 0 mm 0 mps 756 mmHg 81%
    03:00 +17°C° 0 mm 0 mps 756 mmHg 81%
    04:00 +19°C° 0 mm 1 mps 756 mmHg 80%
    05:00 +19°C° 0 mm 2 mps 755 mmHg 79%
    06:00 +19°C° 0 mm 2 mps 755 mmHg 79%
    07:00 +21°C° 0 mm 3 mps 755 mmHg 73%
    08:00 +23°C° 0 mm 4 mps 755 mmHg 67%
    09:00 +26°C° 0 mm 4 mps 755 mmHg 61%
    10:00 +26°C° 0 mm 5 mps 755 mmHg 60%
    11:00 +26°C° 0 mm 5 mps 755 mmHg 60%
    12:00 +26°C° 0 mm 5 mps 755 mmHg 59%
    13:00 +27°C° 0.1 mm 5 mps 754 mmHg 57%
    14:00 +27°C° 0.1 mm 6 mps 753 mmHg 55%
    15:00 +28°C° 0.1 mm 6 mps 753 mmHg 53%
    16:00 +28°C° 0.1 mm 6 mps 752 mmHg 57%
    17:00 +27°C° 0.1 mm 5 mps 752 mmHg 60%
    18:00 +27°C° 0.1 mm 4 mps 751 mmHg 63%
    19:00 +26°C° 0.3 mm 5 mps 751 mmHg 65%
    20:00 +23°C° 0.3 mm 6 mps 751 mmHg 67%
    21:00 +22°C° 0.3 mm 7 mps 751 mmHg 69%
    22:00 +22°C° 0.7 mm 7 mps 751 mmHg 75%
    23:00 +21°C° 0.7 mm 6 mps 751 mmHg 81%

    26 May, Sunday

    Time Temperature Precipitation Wind Pressure Humidity
    00:00 +20°C° 0.7 mm 6 mps 751 mmHg 88%
    01:00 +19°C° 0 mm 6 mps 751 mmHg 88%
    02:00 +19°C° 0 mm 6 mps 751 mmHg 88%
    03:00 +17°C° 0 mm 6 mps 752 mmHg 88%
    04:00 +17°C° 0 mm 7 mps 752 mmHg 89%
    05:00 +17°C° 0 mm 7 mps 752 mmHg 90%
    06:00 +17°C° 0 mm 7 mps 753 mmHg 91%
    07:00 +18°C° 0 mm 7 mps 753 mmHg 84%
    08:00 +20°C° 0 mm 7 mps 753 mmHg 77%
    09:00 +21°C° 0 mm 8 mps 753 mmHg 71%
    10:00 +22°C° 0.1 mm 8 mps 753 mmHg 67%
    11:00 +23°C° 0.1 mm 9 mps 753 mmHg 63%
    12:00 +24°C° 0.1 mm 9 mps 753 mmHg 60%
    13:00 +24°C° 0.7 mm 9 mps 753 mmHg 62%
    14:00 +24°C° 0.7 mm 9 mps 753 mmHg 64%
    15:00 +23°C° 0.7 mm 9 mps 753 mmHg 66%
    16:00 +23°C° 0.8 mm 8 mps 754 mmHg 68%
    17:00 +23°C° 0.8 mm 8 mps 754 mmHg 70%
    18:00 +22°C° 0.8 mm 7 mps 754 mmHg 72%
    19:00 +21°C° 0.1 mm 6 mps 755 mmHg 77%
    20:00 +20°C° 0.1 mm 5 mps 755 mmHg 81%
    21:00 +19°C° 0.1 mm 4 mps 756 mmHg 86%
    22:00 +17°C° 0 mm 5 mps 756 mmHg 87%
    23:00 +17°C° 0 mm 5 mps 756 mmHg 89%
    Show more